Location: Lafig�re
(44.4503°N, 4.0357°E)
Time: 15:11:09
(UTC+00:00)

S-56A Canister/Altair - Pass Details

Date: 30 January 2021
Orbit: 631 x 2501 km, 38.9° (Epoch: 01 March)

Event Time Altitude Azimuth Distance (km) Brightness Sun altitude
Rises 03:53:50 0° 268° (W) 2,976 - -34.1°
Reaches altitude 10° 03:56:21 10° 258° (WSW) 2,013 - -33.6°
Maximum altitude 04:00:16 31° 195° (SSW) 1,117 - -33.0°
Exits shadow 04:03:03 17° 143° (SE) 1,673 9.5 -32.5°
Drops below altitude 10° 04:04:29 10° 133° (SE) 2,170 10.3 -32.2°
Sets 04:07:18 0° 123° (ESE) 3,254 11.4 -31.7°
